• MPC Preparation (Info)

  • MPEC 2017-F47 : 2017 FN1

    The following Minor Planet Electronic Circular may be linked-to from your own Web pages, but must not otherwise be redistributed electronically.

    A form allowing access to any MPEC is at the bottom of this page.


    Read MPEC 2017-F46 Read MPEC 2017-F48


    M.P.E.C. 2017-F47                                Issued 2017 Mar. 21, 02:26 UT
    
         The Minor Planet Electronic Circulars contain information on unusual
             minor planets and routine data on comets.  They are published
        on behalf of Division F of the International Astronomical Union by the
              Minor Planet Center, Smithsonian Astrophysical Observatory,
                              Cambridge, MA 02138, U.S.A.
    
                 Prepared using the Tamkin Foundation Computer Network
    
                                  MPC@CFA.HARVARD.EDU
                URL https://www.minorplanetcenter.net/    ISSN 1523-6714
    
                                       2017 FN1
    
    Observations:
         K17F01N* C2017 03 20.35600 12 05 46.59 +04 44 41.7          19.1 VqEF047G96
         K17F01N  C2017 03 20.36454 12 05 32.18 +04 48 27.6                qEF047G96
         K17F01N  C2017 03 20.36884 12 05 24.91 +04 50 21.8          19.1 VqEF047G96
         K17F01N  C2017 03 20.45122 12 02 42.54 +05 34 27.8          19.7 VqEF047G96
         K17F01N  C2017 03 20.45151 12 02 41.89 +05 34 39.3          19.0 VqEF047G96
         K17F01N  C2017 03 20.45180 12 02 41.24 +05 34 50.2          19.4 VqEF047G96
         K17F01N KC2017 03 20.80430711 17 53.77 +25 12 26.8          16.4 GUEF047J95
         K17F01N KC2017 03 20.80526711 17 06.55 +25 29 20.0          16.2 GUEF047J95
         K17F01N KC2017 03 20.81518511 07 32.11 +28 46 32.5          15.8 GUEF047J95
         K17F01N KC2017 03 20.81603111 06 34.50 +29 05 31.4          15.9 GUEF047J95
         K17F01N KC2017 03 20.81732711 05 03.09 +29 35 19.1          15.9 GUEF047J95
         K17F01N KC2017 03 20.81892511 03 04.83 +30 13 18.9          16.2 GUEF047J95
         K17F01N KC2017 03 20.82022311 01 23.95 +30 45 14.5          16.6 GUEF047J95
    
    Observer details:
    G96 Mt. Lemmon Survey.  Observer G. J. Leonard.  Measurers E. J. Christensen,
        D. C. Fuls, A. R. Gibbs, A. D. Grauer, J. A. Johnson, R. A. Kowalski,
        S. M. Larson, G. J. Leonard, R. G. Matheny, R. L. Seaman, F. C. Shelly.
        1.5-m reflector + 10K CCD.
    J95 Great Shefford.  Observer P. Birtwhistle.  0.40-m f/6.0 Schmidt-Cassegrain
        + CCD.
    
    Orbital elements:
    2017 FN1                                                 Earth MOID = 0.0003 AU
    Epoch 2017 Feb. 16.0 TT = JDT 2457800.5                 MPC
    M 308.62656              (2000.0)            P               Q
    n   0.59891295     Peri.  275.03017     +0.10111599     +0.99487458
    a   1.3938849      Node     0.77352     -0.90224831     +0.09184929
    e   0.5703382      Incl.    1.47888     -0.41919391     +0.04228797
    P   1.65           H   30.6           G   0.15           U   6
    Residuals in seconds of arc
    170320 G96  1.7+  0.3-    170320 G96  1.6-  0.1-    170320 J95  0.1+  0.1+
    170320 G96  0.3+  1.0+    170320 J95  0.2+  0.1+    170320 J95  0.2-  0.1-
    170320 G96  1.7+  0.6-    170320 J95  0.6+  0.3+    170320 J95  0.4-  0.4-
    170320 G96  1.5-  0.5-    170320 J95  0.1+  0.4-
    170320 G96  1.5-  0.0     170320 J95  0.2+  0.2+
    
    Ephemeris:
    2017 FN1                 a,e,i = 1.39, 0.57, 1                   q = 0.5989
    Date    TT    R. A. (2000) Decl.     Delta      r     Elong.  Phase     V
    2017 02 19    12 08 54.7 +01 28 03   0.3302  1.2823   148.8    23.6    29.8
    ...
    2017 03 06    12 13 38.8 +01 10 22   0.1572  1.1430   162.5    15.1    27.7
    ...
    2017 03 14    12 14 13.7 +01 17 24   0.07166 1.0648   170.3     9.1    25.6
    ...
    2017 03 20    12 09 48.0 +03 20 38   0.0091211.0049   175.7     4.3    20.8
    2017 03 21    00 47 45.6 +13 08 03   0.0013610.9948    17.4   162.6    28.2
    2017 03 22    00 15 04.1 -01 02 30   0.01169 0.9847     3.0   177.0
    ...
    2017 03 28    00 11 38.9 -02 33 19   0.07429 0.9244     6.6   172.9
    ...
    2017 04 05    00 11 57.3 -02 31 03   0.1607  0.8452    13.9   163.5
    ...
    2017 04 20    00 18 59.4 -01 18 44   0.3447  0.7118    26.2   141.5    34.6
    
    A. U. Tomatic                (C) Copyright 2017 MPC           M.P.E.C. 2017-F47
    

    Read MPEC 2017-F46 Read MPEC 2017-F48


    MPEC number:

    Enter an MPEC number in one of the following forms:

    • 1997-B01 (the full form)
    • J97B01 (the packed version of the full form)
    • B01 (the abbreviated form)